Time,TemperatureF,DewpointF,PressureIn,WindDirection,WindDirectionDegrees,WindSpeedMPH,WindSpeedGustMPH,Humidity,HourlyPrecipIn,Conditions,Clouds,dailyrainin,SoftwareType,DateUTC
2013-07-11 00:01:00,72.7,72.1,28.80,North,360,2.7,2.7,98,0.00,CLR,FEW,0.00,WeatherDisplay:10.37,2013-07-11 04:01:00,
2013-07-11 00:06:00,72.7,72.1,28.80,ENE,68,1.7,1.7,98,0.00,CLR,FEW,0.00,WeatherDisplay:10.37,2013-07-11 04:06:00,
2013-07-11 00:11:00,72.7,72.1,28.80,ENE,68,0.0,0.0,98,0.00,CLR,FEW,0.00,WeatherDisplay:10.37,2013-07-11 04:11:00,
2013-07-11 00:16:00,72.7,72.1,28.79,NNW,338,0.0,0.0,98,0.00,CLR,FEW,0.00,WeatherDisplay:10.37,2013-07-11 04:16:00,
2013-07-11 00:21:00,72.9,72.3,28.79,NNW,338,0.0,0.0,98,0.00,CLR,FEW,0.00,WeatherDisplay:10.37,2013-07-11 04:21:00,
2013-07-11 00:26:00,73.0,72.4,28.79,NNW,338,0.0,0.0,98,0.00,CLR,FEW,0.00,WeatherDisplay:10.37,2013-07-11 04:26:00,
2013-07-11 00:31:00,73.0,72.4,28.79,SE,135,0.0,0.0,98,0.00,CLR,FEW,0.00,WeatherDisplay:10.37,2013-07-11 04:31:00,
2013-07-11 00:36:00,73.0,72.4,28.79,ESE,112,0.0,0.0,98,0.00,CLR,FEW,0.00,WeatherDisplay:10.37,2013-07-11 04:36:00,
2013-07-11 00:41:00,73.0,72.4,28.79,SE,135,0.0,0.0,98,0.00,CLR,FEW,0.00,WeatherDisplay:10.37,2013-07-11 04:41:00,
2013-07-11 00:46:00,73.2,72.6,28.79,South,180,2.7,2.7,98,0.00,CLR,FEW,0.00,WeatherDisplay:10.37,2013-07-11 04:46:00,
2013-07-11 00:51:00,73.0,72.4,28.78,South,180,1.2,1.2,98,0.00,CLR,FEW,0.00,WeatherDisplay:10.37,2013-07-11 04:51:00,
2013-07-11 00:56:00,73.0,72.4,28.78,West,270,0.0,0.0,98,0.00,CLR,FEW,0.00,WeatherDisplay:10.37,2013-07-11 04:56:00,
2013-07-11 01:01:00,73.2,72.6,28.79,West,270,0.0,0.0,98,0.00,CLR,FEW,0.00,WeatherDisplay:10.37,2013-07-11 05:01:00,
2013-07-11 01:06:00,73.2,72.6,28.79,SSE,158,0.0,0.0,98,0.00,CLR,FEW,0.00,WeatherDisplay:10.37,2013-07-11 05:06:00,
2013-07-11 01:12:00,73.2,72.6,28.79,ESE,112,0.0,0.0,98,0.00,CLR,FEW,0.00,WeatherDisplay:10.37,2013-07-11 05:12:00,
2013-07-11 01:17:00,73.2,72.6,28.79,West,270,0.0,0.0,98,0.00,CLR,FEW,0.00,WeatherDisplay:10.37,2013-07-11 05:17:00,
2013-07-11 01:22:00,73.4,72.8,28.79,WNW,292,0.0,0.0,98,0.00,CLR,FEW,0.00,WeatherDisplay:10.37,2013-07-11 05:22:00,
2013-07-11 01:27:00,73.4,72.8,28.80,West,270,0.0,0.0,98,0.00,CLR,FEW,0.00,WeatherDisplay:10.37,2013-07-11 05:27:00,
2013-07-11 01:32:00,73.4,72.8,28.80,SW,225,0.0,0.0,98,0.00,CLR,FEW,0.00,WeatherDisplay:10.37,2013-07-11 05:32:00,
2013-07-11 01:37:00,73.4,72.8,28.80,West,270,0.0,0.0,98,0.00,CLR,FEW,0.00,WeatherDisplay:10.37,2013-07-11 05:37:00,
2013-07-11 01:42:00,73.4,72.8,28.79,West,270,0.0,0.0,98,0.00,CLR,FEW,0.00,WeatherDisplay:10.37,2013-07-11 05:42:00,
2013-07-11 01:47:00,73.6,73.0,28.79,West,270,0.0,0.0,98,0.00,CLR,FEW,0.00,WeatherDisplay:10.37,2013-07-11 05:47:00,
2013-07-11 01:52:00,73.6,73.0,28.80,WSW,248,0.0,0.0,98,0.00,CLR,FEW,0.00,WeatherDisplay:10.37,2013-07-11 05:52:00,
2013-07-11 01:57:00,73.4,72.8,28.80,SW,225,0.0,0.0,98,0.00,CLR,FEW,0.00,WeatherDisplay:10.37,2013-07-11 05:57:00,
2013-07-11 02:02:00,73.4,72.8,28.79,SW,225,1.2,0.0,98,0.00,CLR,FEW,0.00,WeatherDisplay:10.37,2013-07-11 06:02:00,
2013-07-11 02:07:00,73.4,72.8,28.79,SW,225,1.2,1.2,98,0.00,CLR,FEW,0.00,WeatherDisplay:10.37,2013-07-11 06:07:00,
2013-07-11 02:12:00,73.4,72.8,28.79,West,270,1.2,1.2,98,0.00,CLR,FEW,0.00,WeatherDisplay:10.37,2013-07-11 06:12:00,
2013-07-11 02:17:00,73.2,72.6,28.79,WSW,248,0.0,0.0,98,0.00,CLR,FEW,0.00,WeatherDisplay:10.37,2013-07-11 06:17:00,
2013-07-11 02:22:00,73.2,72.6,28.79,NNW,338,0.0,0.0,98,0.00,CLR,FEW,0.00,WeatherDisplay:10.37,2013-07-11 06:22:00,
2013-07-11 02:27:00,73.2,72.6,28.78,NNW,338,0.0,0.0,98,0.00,CLR,FEW,0.00,WeatherDisplay:10.37,2013-07-11 06:27:00,
2013-07-11 02:32:00,73.2,72.6,28.78,NW,315,0.0,0.0,98,0.00,CLR,FEW,0.00,WeatherDisplay:10.37,2013-07-11 06:32:00,
2013-07-11 02:37:00,73.2,72.6,28.78,NNW,338,0.0,0.0,98,0.00,CLR,FEW,0.00,WeatherDisplay:10.37,2013-07-11 06:37:00,
2013-07-11 02:42:00,73.2,72.6,28.79,ESE,112,0.0,0.0,98,0.00,CLR,FEW,0.00,WeatherDisplay:10.37,2013-07-11 06:42:00,
2013-07-11 02:47:00,73.2,72.6,28.79,SSE,158,0.0,0.0,98,0.00,CLR,FEW,0.00,WeatherDisplay:10.37,2013-07-11 06:47:00,
2013-07-11 02:52:00,73.2,72.6,28.78,West,270,0.0,0.0,98,0.00,CLR,FEW,0.00,WeatherDisplay:10.37,2013-07-11 06:52:00,
2013-07-11 02:57:00,73.2,72.6,28.78,SSW,202,0.0,0.0,98,0.00,CLR,FEW,0.00,WeatherDisplay:10.37,2013-07-11 06:57:00,
2013-07-11 03:02:00,73.2,72.6,28.79,SW,225,0.0,0.0,98,0.00,CLR,FEW,0.00,WeatherDisplay:10.37,2013-07-11 07:02:00,
2013-07-11 03:07:00,73.0,72.4,28.79,ESE,112,0.0,0.0,98,0.00,CLR,FEW,0.00,WeatherDisplay:10.37,2013-07-11 07:07:00,
2013-07-11 03:12:00,73.0,72.4,28.79,ESE,112,1.7,1.7,98,0.00,CLR,FEW,0.00,WeatherDisplay:10.37,2013-07-11 07:12:00,
2013-07-11 03:17:00,73.0,72.4,28.78,NE,45,0.0,0.0,98,0.00,CLR,FEW,0.00,WeatherDisplay:10.37,2013-07-11 07:17:00,
2013-07-11 03:22:00,73.0,72.4,28.78,NE,45,0.0,0.0,98,0.00,CLR,FEW,0.00,WeatherDisplay:10.37,2013-07-11 07:22:00,
2013-07-11 03:27:00,73.0,72.4,28.78,ENE,68,0.0,0.0,98,0.00,CLR,FEW,0.00,WeatherDisplay:10.37,2013-07-11 07:27:00,
2013-07-11 03:32:00,72.9,72.3,28.78,NW,315,0.0,0.0,98,0.00,CLR,FEW,0.00,WeatherDisplay:10.37,2013-07-11 07:32:00,
2013-07-11 03:37:00,72.9,72.3,28.78,South,180,0.0,0.0,98,0.00,CLR,FEW,0.00,WeatherDisplay:10.37,2013-07-11 07:37:00,
2013-07-11 03:42:00,72.9,72.3,28.78,West,270,0.0,0.0,98,0.00,CLR,FEW,0.00,WeatherDisplay:10.37,2013-07-11 07:42:00,
2013-07-11 03:47:00,72.9,72.3,28.78,West,270,0.0,0.0,98,0.00,CLR,FEW,0.00,WeatherDisplay:10.37,2013-07-11 07:47:00,
2013-07-11 03:52:00,72.9,72.3,28.78,West,270,0.0,0.0,98,0.00,CLR,FEW,0.00,WeatherDisplay:10.37,2013-07-11 07:52:00,
2013-07-11 03:57:00,73.0,72.4,28.78,ESE,112,0.0,0.0,98,0.00,CLR,FEW,0.00,WeatherDisplay:10.37,2013-07-11 07:57:00,
2013-07-11 04:02:00,73.0,72.4,28.77,ESE,112,0.0,0.0,98,0.00,CLR,FEW,0.00,WeatherDisplay:10.37,2013-07-11 08:02:00,
2013-07-11 04:07:00,73.0,72.4,28.77,North,360,0.0,0.0,98,0.00,CLR,FEW,0.00,WeatherDisplay:10.37,2013-07-11 08:07:00,
2013-07-11 04:12:00,73.0,72.4,28.77,ENE,68,0.0,0.0,98,0.00,CLR,FEW,0.00,WeatherDisplay:10.37,2013-07-11 08:12:00,
2013-07-11 04:17:00,73.0,72.4,28.77,West,270,0.0,0.0,98,0.00,CLR,FEW,0.00,WeatherDisplay:10.37,2013-07-11 08:17:00,
2013-07-11 04:22:00,73.0,72.4,28.77,West,270,0.0,0.0,98,0.00,CLR,FEW,0.00,WeatherDisplay:10.37,2013-07-11 08:22:00,
2013-07-11 04:27:00,73.0,72.4,28.77,WSW,248,0.0,0.0,98,0.00,CLR,FEW,0.00,WeatherDisplay:10.37,2013-07-11 08:27:00,
2013-07-11 04:32:00,73.2,72.6,28.77,SSE,158,2.3,2.3,98,0.00,CLR,FEW,0.00,WeatherDisplay:10.37,2013-07-11 08:32:00,
2013-07-11 04:37:00,73.2,72.6,28.76,South,180,2.3,2.3,98,0.00,CLR,FEW,0.00,WeatherDisplay:10.37,2013-07-11 08:37:00,
2013-07-11 04:42:00,73.2,72.6,28.76,SW,225,2.3,2.6,98,0.00,CLR,FEW,0.00,WeatherDisplay:10.37,2013-07-11 08:42:00,
2013-07-11 04:47:00,73.2,72.6,28.76,South,180,1.7,1.7,98,0.00,CLR,FEW,0.00,WeatherDisplay:10.37,2013-07-11 08:47:00,
2013-07-11 04:52:00,73.2,72.6,28.77,SSE,158,2.3,2.3,98,0.00,CLR,FEW,0.00,WeatherDisplay:10.37,2013-07-11 08:52:00,
2013-07-11 04:57:00,73.2,72.6,28.77,South,180,3.5,3.5,98,0.00,CLR,FEW,0.00,WeatherDisplay:10.37,2013-07-11 08:57:00,
2013-07-11 05:02:00,73.2,72.6,28.77,South,180,2.7,2.7,98,0.00,CLR,FEW,0.00,WeatherDisplay:10.37,2013-07-11 09:02:00,
2013-07-11 05:07:00,73.0,72.4,28.77,SSE,158,1.2,0.0,98,0.00,CLR,FEW,0.00,WeatherDisplay:10.37,2013-07-11 09:07:00,
2013-07-11 05:12:00,73.0,72.4,28.77,SSW,202,1.7,1.7,98,0.00,CLR,FEW,0.00,WeatherDisplay:10.37,2013-07-11 09:12:00,
2013-07-11 05:17:00,73.0,72.4,28.77,SW,225,1.2,1.2,98,0.00,CLR,FEW,0.00,WeatherDisplay:10.37,2013-07-11 09:17:00,
2013-07-11 05:22:00,73.0,72.4,28.77,SSE,158,2.7,2.7,98,0.00,CLR,FEW,0.00,WeatherDisplay:10.37,2013-07-11 09:22:00,
2013-07-11 05:27:00,73.0,72.4,28.77,WSW,248,2.3,2.3,98,0.00,CLR,FEW,0.00,WeatherDisplay:10.37,2013-07-11 09:27:00,
2013-07-11 05:32:00,73.0,72.4,28.77,West,270,1.7,1.7,98,0.00,CLR,FEW,0.00,WeatherDisplay:10.37,2013-07-11 09:32:00,
2013-07-11 05:38:00,73.0,72.4,28.77,WNW,292,0.0,0.0,98,0.00,CLR,FEW,0.00,WeatherDisplay:10.37,2013-07-11 09:38:00,
2013-07-11 05:43:00,73.0,72.4,28.77,SW,225,2.3,2.3,98,0.00,CLR,FEW,0.00,WeatherDisplay:10.37,2013-07-11 09:43:00,
2013-07-11 05:48:00,73.0,72.4,28.77,West,270,0.0,0.0,98,0.00,CLR,FEW,0.00,WeatherDisplay:10.37,2013-07-11 09:48:00,
2013-07-11 05:53:00,73.0,72.4,28.77,SW,225,0.0,0.0,98,0.00,CLR,FEW,0.00,WeatherDisplay:10.37,2013-07-11 09:53:00,
2013-07-11 05:58:00,73.0,72.4,28.77,SW,225,0.0,0.0,98,0.00,CLR,FEW,0.00,WeatherDisplay:10.37,2013-07-11 09:58:00,
2013-07-11 06:03:00,73.0,72.4,28.77,WSW,248,0.0,0.0,98,0.00,CLR,FEW,0.00,WeatherDisplay:10.37,2013-07-11 10:03:00,
2013-07-11 06:08:00,73.0,72.4,28.77,WSW,248,0.0,0.0,98,0.00,CLR,FEW,0.00,WeatherDisplay:10.37,2013-07-11 10:08:00,
2013-07-11 06:13:00,73.0,72.4,28.77,West,270,1.2,1.2,98,0.00,CLR,FEW,0.00,WeatherDisplay:10.37,2013-07-11 10:13:00,
2013-07-11 06:18:00,73.0,72.4,28.77,WSW,248,1.2,1.2,98,0.00,CLR,FEW,0.00,WeatherDisplay:10.37,2013-07-11 10:18:00,
2013-07-11 06:23:00,73.2,72.6,28.77,West,270,0.0,0.0,98,0.00,CLR,FEW,0.00,WeatherDisplay:10.37,2013-07-11 10:23:00,
2013-07-11 06:28:00,73.2,72.6,28.78,WSW,248,2.3,2.3,98,0.00,CLR,FEW,0.00,WeatherDisplay:10.37,2013-07-11 10:28:00,
2013-07-11 06:33:00,73.2,72.6,28.78,NW,315,0.0,0.0,98,0.00,CLR,FEW,0.00,WeatherDisplay:10.37,2013-07-11 10:33:00,
2013-07-11 06:38:00,73.2,72.6,28.78,West,270,0.0,0.0,98,0.00,CLR,FEW,0.00,WeatherDisplay:10.37,2013-07-11 10:38:00,
2013-07-11 06:43:00,73.4,72.8,28.78,WSW,248,0.0,0.0,98,0.00,CLR,FEW,0.00,WeatherDisplay:10.37,2013-07-11 10:43:00,
2013-07-11 06:48:00,73.4,72.8,28.78,WSW,248,0.0,0.0,98,0.00,CLR,FEW,0.00,WeatherDisplay:10.37,2013-07-11 10:48:00,
2013-07-11 06:53:00,73.4,72.8,28.78,South,180,0.0,0.0,98,0.00,CLR,FEW,0.00,WeatherDisplay:10.37,2013-07-11 10:53:00,
2013-07-11 06:58:00,73.4,72.8,28.78,SW,225,0.0,0.0,98,0.00,CLR,FEW,0.00,WeatherDisplay:10.37,2013-07-11 10:58:00,
2013-07-11 07:03:00,73.6,73.0,28.79,SW,225,1.2,0.0,98,0.00,CLR,FEW,0.00,WeatherDisplay:10.37,2013-07-11 11:03:00,
2013-07-11 07:08:00,73.6,73.0,28.79,WSW,248,0.0,0.0,98,0.00,CLR,FEW,0.00,WeatherDisplay:10.37,2013-07-11 11:08:00,
2013-07-11 07:13:00,73.6,73.0,28.79,SW,225,0.0,0.0,98,0.00,CLR,FEW,0.00,WeatherDisplay:10.37,2013-07-11 11:13:00,
2013-07-11 07:18:00,73.6,73.0,28.79,South,180,2.3,2.3,98,0.00,CLR,FEW,0.00,WeatherDisplay:10.37,2013-07-11 11:18:00,
2013-07-11 07:23:00,73.6,73.0,28.79,SW,225,2.3,2.3,98,0.00,CLR,FEW,0.00,WeatherDisplay:10.37,2013-07-11 11:23:00,
2013-07-11 07:28:00,73.6,73.0,28.79,West,270,2.7,2.7,98,0.00,CLR,FEW,0.00,WeatherDisplay:10.37,2013-07-11 11:28:00,
2013-07-11 07:33:00,73.6,73.0,28.79,WSW,248,1.2,0.0,98,0.00,CLR,FEW,0.00,WeatherDisplay:10.37,2013-07-11 11:33:00,
2013-07-11 07:38:00,73.8,73.2,28.80,SW,225,0.0,0.0,98,0.00,CLR,FEW,0.00,WeatherDisplay:10.37,2013-07-11 11:38:00,
2013-07-11 07:43:00,73.8,73.2,28.80,SW,225,2.3,2.3,98,0.00,CLR,FEW,0.00,WeatherDisplay:10.37,2013-07-11 11:43:00,
2013-07-11 07:48:00,74.1,73.5,28.80,WSW,248,1.7,1.7,98,0.00,CLR,FEW,0.00,WeatherDisplay:10.37,2013-07-11 11:48:00,
2013-07-11 07:53:00,74.1,73.5,28.79,SSW,202,0.0,0.0,98,0.00,CLR,FEW,0.00,WeatherDisplay:10.37,2013-07-11 11:53:00,
2013-07-11 07:58:00,73.9,73.3,28.79,SSW,202,3.5,3.5,98,0.00,CLR,FEW,0.00,WeatherDisplay:10.37,2013-07-11 11:58:00,
2013-07-11 08:03:00,74.3,73.7,28.79,South,180,0.0,0.0,98,0.00,CLR,FEW,0.00,WeatherDisplay:10.37,2013-07-11 12:03:00,
2013-07-11 08:08:00,74.3,73.7,28.79,SW,225,1.2,1.2,98,0.00,CLR,FEW,0.00,WeatherDisplay:10.37,2013-07-11 12:08:00,
2013-07-11 08:13:00,74.3,73.7,28.79,WSW,248,2.3,2.3,98,0.00,CLR,FEW,0.00,WeatherDisplay:10.37,2013-07-11 12:13:00,
2013-07-11 08:18:00,74.5,73.9,28.79,SE,135,4.6,4.6,98,0.00,CLR,FEW,0.00,WeatherDisplay:10.37,2013-07-11 12:18:00,
2013-07-11 08:23:00,74.3,73.7,28.79,South,180,4.6,4.6,98,0.00,CLR,FEW,0.00,WeatherDisplay:10.37,2013-07-11 12:23:00,
2013-07-11 08:28:00,74.3,73.7,28.79,SW,225,5.8,5.8,98,0.00,CLR,FEW,0.00,WeatherDisplay:10.37,2013-07-11 12:28:00,
2013-07-11 08:33:00,74.5,73.9,28.79,SSW,202,4.6,4.6,98,0.00,CLR,FEW,0.00,WeatherDisplay:10.37,2013-07-11 12:33:00,
2013-07-11 08:38:00,74.7,74.1,28.79,WSW,248,3.5,3.5,98,0.00,CLR,FEW,0.00,WeatherDisplay:10.37,2013-07-11 12:38:00,
2013-07-11 08:43:00,74.7,74.1,28.79,SW,225,2.7,2.7,98,0.00,CLR,FEW,0.00,WeatherDisplay:10.37,2013-07-11 12:43:00,
2013-07-11 08:48:00,74.7,74.1,28.79,West,270,3.5,3.5,98,0.00,CLR,FEW,0.00,WeatherDisplay:10.37,2013-07-11 12:48:00,
2013-07-11 08:53:00,74.7,74.1,28.80,SSW,202,3.5,3.5,98,0.00,CLR,FEW,0.00,WeatherDisplay:10.37,2013-07-11 12:53:00,
2013-07-11 08:58:00,75.0,74.4,28.80,West,270,1.2,0.0,98,0.00,CLR,FEW,0.00,WeatherDisplay:10.37,2013-07-11 12:58:00,
2013-07-11 09:03:00,75.2,74.6,28.80,South,180,2.3,2.3,98,0.00,CLR,FEW,0.00,WeatherDisplay:10.37,2013-07-11 13:03:00,
2013-07-11 09:08:00,75.4,74.8,28.80,SSE,158,0.0,0.0,98,0.00,CLR,FEW,0.00,WeatherDisplay:10.37,2013-07-11 13:08:00,
2013-07-11 09:14:00,75.4,74.8,28.80,South,180,2.7,2.7,98,0.00,CLR,FEW,0.00,WeatherDisplay:10.37,2013-07-11 13:14:00,
2013-07-11 09:19:00,75.0,74.4,28.80,South,180,2.7,2.7,98,0.00,CLR,FEW,0.00,WeatherDisplay:10.37,2013-07-11 13:19:00,
2013-07-11 09:24:00,75.0,74.4,28.80,SSE,158,2.7,2.7,98,0.00,CLR,FEW,0.00,WeatherDisplay:10.37,2013-07-11 13:24:00,
2013-07-11 09:29:00,75.6,75.0,28.80,SW,225,3.5,3.5,98,0.00,CLR,FEW,0.00,WeatherDisplay:10.37,2013-07-11 13:29:00,
2013-07-11 09:34:00,76.3,75.7,28.80,SSW,202,1.7,1.7,98,0.00,CLR,FEW,0.00,WeatherDisplay:10.37,2013-07-11 13:34:00,
2013-07-11 09:39:00,76.5,75.9,28.80,WNW,292,2.3,2.3,98,0.00,CLR,FEW,0.00,WeatherDisplay:10.37,2013-07-11 13:39:00,
2013-07-11 09:45:00,76.5,75.9,28.80,West,270,0.0,0.0,98,0.00,CLR,FEW,0.00,WeatherDisplay:10.37,2013-07-11 13:45:00,
2013-07-11 09:50:00,76.5,75.9,28.80,WSW,248,2.7,2.7,98,0.00,CLR,FEW,0.00,WeatherDisplay:10.37,2013-07-11 13:50:00,
2013-07-11 09:56:00,76.1,75.5,28.80,WSW,248,2.3,2.3,98,0.00,CLR,FEW,0.00,WeatherDisplay:10.37,2013-07-11 13:56:00,
2013-07-11 10:01:00,76.3,75.7,28.80,West,270,2.3,2.3,98,0.00,CLR,FEW,0.00,WeatherDisplay:10.37,2013-07-11 14:01:00,
2013-07-11 10:06:00,76.3,75.7,28.80,West,270,2.3,2.3,98,0.00,CLR,FEW,0.00,WeatherDisplay:10.37,2013-07-11 14:06:00,
2013-07-11 10:11:00,76.1,75.5,28.80,SSW,202,3.5,3.5,98,0.00,CLR,FEW,0.00,WeatherDisplay:10.37,2013-07-11 14:11:00,
2013-07-11 10:16:00,75.9,75.3,28.80,WSW,248,4.6,4.6,98,0.00,CLR,FEW,0.00,WeatherDisplay:10.37,2013-07-11 14:16:00,
2013-07-11 10:22:00,75.7,75.1,28.80,SSW,202,4.6,4.6,98,0.00,CLR,FEW,0.00,WeatherDisplay:10.37,2013-07-11 14:22:00,
2013-07-11 10:27:00,75.9,75.3,28.80,West,270,4.6,4.6,98,0.00,CLR,FEW,0.00,WeatherDisplay:10.37,2013-07-11 14:27:00,
2013-07-11 10:32:00,76.3,74.1,28.80,WSW,248,4.6,4.6,93,0.00,CLR,FEW,0.00,WeatherDisplay:10.37,2013-07-11 14:32:00,
2013-07-11 10:37:00,76.3,74.1,28.80,West,270,2.3,2.3,93,0.00,CLR,FEW,0.00,WeatherDisplay:10.37,2013-07-11 14:37:00,
2013-07-11 10:42:00,76.3,74.1,28.80,SW,225,2.7,2.7,93,0.00,CLR,FEW,0.00,WeatherDisplay:10.37,2013-07-11 14:42:00,
2013-07-11 10:47:00,76.3,75.4,28.80,SW,225,2.7,2.7,97,0.00,CLR,FEW,0.00,WeatherDisplay:10.37,2013-07-11 14:47:00,
2013-07-11 10:52:00,76.5,74.3,28.80,West,270,3.5,3.5,93,0.00,CLR,FEW,0.00,WeatherDisplay:10.37,2013-07-11 14:52:00,
2013-07-11 10:57:00,76.6,74.1,28.80,SSE,158,3.5,3.5,92,0.00,CLR,FEW,0.00,WeatherDisplay:10.37,2013-07-11 14:57:00,
2013-07-11 11:02:00,77.2,75.0,28.80,West,270,2.2,2.2,93,0.00,CLR,FEW,0.00,WeatherDisplay:10.37,2013-07-11 15:02:00,
2013-07-11 11:07:00,77.2,74.4,28.80,West,270,3.5,3.5,91,0.00,CLR,FEW,0.00,WeatherDisplay:10.37,2013-07-11 15:07:00,
2013-07-11 11:12:00,77.4,74.2,28.80,SW,225,0.0,0.3,90,0.00,CLR,FEW,0.00,WeatherDisplay:10.37,2013-07-11 15:12:00,
2013-07-11 11:18:00,77.4,74.2,28.80,SSW,202,1.2,1.2,90,0.00,CLR,FEW,0.00,WeatherDisplay:10.37,2013-07-11 15:18:00,
2013-07-11 11:23:00,77.7,74.5,28.80,West,270,0.0,0.0,90,0.00,CLR,FEW,0.00,WeatherDisplay:10.37,2013-07-11 15:23:00,
2013-07-11 11:28:00,77.9,74.1,28.80,West,270,1.7,1.7,88,0.00,CLR,FEW,0.00,WeatherDisplay:10.37,2013-07-11 15:28:00,
2013-07-11 11:33:00,78.6,74.7,28.80,SW,225,0.0,0.0,88,0.00,CLR,FEW,0.00,WeatherDisplay:10.37,2013-07-11 15:33:00,
2013-07-11 11:38:00,78.6,74.4,28.80,West,270,1.7,1.7,87,0.00,CLR,FEW,0.00,WeatherDisplay:10.37,2013-07-11 15:38:00,
2013-07-11 11:43:00,78.6,74.4,28.80,SW,225,0.0,0.0,87,0.00,CLR,FEW,0.00,WeatherDisplay:10.37,2013-07-11 15:43:00,
2013-07-11 11:48:00,78.6,74.7,28.80,ESE,112,0.0,0.0,88,0.00,CLR,FEW,0.00,WeatherDisplay:10.37,2013-07-11 15:48:00,
2013-07-11 11:54:00,78.8,74.6,28.80,West,270,2.3,2.3,87,0.00,CLR,FEW,0.00,WeatherDisplay:10.37,2013-07-11 15:54:00,
2013-07-11 11:59:00,78.6,74.4,28.80,WSW,248,2.7,2.7,87,0.00,CLR,FEW,0.00,WeatherDisplay:10.37,2013-07-11 15:59:00,
2013-07-11 12:04:00,77.9,74.4,28.80,North,360,2.2,2.5,89,0.00,CLR,FEW,0.00,WeatherDisplay:10.37,2013-07-11 16:04:00,
2013-07-11 12:09:00,78.4,74.5,28.80,NW,315,2.3,2.3,88,0.00,CLR,FEW,0.00,WeatherDisplay:10.37,2013-07-11 16:09:00,
2013-07-11 12:14:00,77.0,74.5,28.79,West,270,2.7,2.7,92,0.00,CLR,FEW,0.00,WeatherDisplay:10.37,2013-07-11 16:14:00,
2013-07-11 12:20:00,77.5,75.6,28.79,North,360,2.3,2.3,94,0.00,CLR,FEW,0.00,WeatherDisplay:10.37,2013-07-11 16:20:00,
2013-07-11 12:25:00,77.5,74.7,28.79,NNE,22,3.5,3.5,91,0.00,CLR,FEW,0.00,WeatherDisplay:10.37,2013-07-11 16:25:00,
2013-07-11 12:30:00,77.4,74.6,28.79,North,360,2.7,2.7,91,0.00,CLR,FEW,0.00,WeatherDisplay:10.37,2013-07-11 16:30:00,
2013-07-11 12:36:00,77.2,74.4,28.79,SW,225,2.7,2.7,91,0.00,CLR,FEW,0.00,WeatherDisplay:10.37,2013-07-11 16:36:00,
2013-07-11 12:41:00,78.4,74.5,28.79,WSW,248,2.3,2.3,88,0.00,CLR,FEW,0.00,WeatherDisplay:10.37,2013-07-11 16:41:00,
2013-07-11 12:46:00,79.5,75.3,28.79,SSW,202,0.0,0.0,87,0.00,CLR,FEW,0.00,WeatherDisplay:10.37,2013-07-11 16:46:00,
2013-07-11 12:51:00,78.8,74.9,28.79,SW,225,4.7,4.7,88,0.00,CLR,FEW,0.00,WeatherDisplay:10.37,2013-07-11 16:51:00,
2013-07-11 12:56:00,78.3,74.8,28.79,West,270,2.7,2.7,89,0.00,CLR,FEW,0.00,WeatherDisplay:10.37,2013-07-11 16:56:00,
2013-07-11 13:01:00,78.1,74.9,28.79,West,270,2.7,2.7,90,0.00,CLR,FEW,0.00,WeatherDisplay:10.37,2013-07-11 17:01:00,
2013-07-11 13:06:00,77.7,74.9,28.79,SSW,202,3.5,3.5,91,0.00,CLR,FEW,0.00,WeatherDisplay:10.37,2013-07-11 17:06:00,
2013-07-11 13:11:00,77.9,74.7,28.79,SW,225,3.5,3.5,90,0.00,CLR,FEW,0.00,WeatherDisplay:10.37,2013-07-11 17:11:00,
2013-07-11 13:17:00,78.1,74.6,28.78,WSW,248,3.5,3.5,89,0.00,CLR,FEW,0.00,WeatherDisplay:10.37,2013-07-11 17:17:00,
2013-07-11 13:22:00,79.0,75.1,28.78,WNW,292,0.0,0.0,88,0.00,CLR,FEW,0.00,WeatherDisplay:10.37,2013-07-11 17:22:00,
2013-07-11 13:27:00,77.5,74.7,28.78,ENE,68,0.0,0.0,91,0.00,CLR,FEW,0.00,WeatherDisplay:10.37,2013-07-11 17:27:00,
2013-07-11 13:32:00,77.7,74.9,28.78,South,180,3.7,3.7,91,0.00,CLR,FEW,0.00,WeatherDisplay:10.37,2013-07-11 17:32:00,
2013-07-11 13:38:00,77.9,74.4,28.77,SSW,202,2.7,2.7,89,0.00,CLR,FEW,0.00,WeatherDisplay:10.37,2013-07-11 17:38:00,
2013-07-11 13:43:00,77.7,74.2,28.77,West,270,4.6,4.6,89,0.00,CLR,FEW,0.00,WeatherDisplay:10.37,2013-07-11 17:43:00,
2013-07-11 13:48:00,77.7,74.5,28.77,WSW,248,2.3,2.3,90,0.00,CLR,FEW,0.00,WeatherDisplay:10.37,2013-07-11 17:48:00,
2013-07-11 13:53:00,78.4,74.5,28.77,SW,225,2.2,2.2,88,0.00,CLR,FEW,0.00,WeatherDisplay:10.37,2013-07-11 17:53:00,
2013-07-11 13:58:00,77.9,74.1,28.77,SSW,202,4.6,4.6,88,0.00,CLR,FEW,0.00,WeatherDisplay:10.37,2013-07-11 17:58:00,
2013-07-11 14:04:00,77.9,74.4,28.77,SW,225,3.5,3.5,89,0.00,CLR,FEW,0.00,WeatherDisplay:10.37,2013-07-11 18:04:00,
2013-07-11 14:09:00,78.8,75.3,28.77,NNE,22,1.2,1.2,89,0.00,CLR,FEW,0.00,WeatherDisplay:10.37,2013-07-11 18:09:00,
2013-07-11 14:14:00,78.6,74.7,28.76,SW,225,2.3,2.3,88,0.00,CLR,FEW,0.00,WeatherDisplay:10.37,2013-07-11 18:14:00,
2013-07-11 14:19:00,79.3,75.1,28.76,WSW,248,1.2,1.2,87,0.00,CLR,FEW,0.00,WeatherDisplay:10.37,2013-07-11 18:19:00,
2013-07-11 14:24:00,79.5,74.6,28.76,South,180,3.2,3.2,85,0.00,CLR,FEW,0.00,WeatherDisplay:10.37,2013-07-11 18:24:00,
2013-07-11 14:29:00,79.9,75.3,28.76,WSW,248,2.3,2.3,86,0.00,CLR,FEW,0.00,WeatherDisplay:10.37,2013-07-11 18:29:00,
2013-07-11 14:34:00,79.7,75.5,28.76,West,270,2.2,2.2,87,0.00,CLR,FEW,0.00,WeatherDisplay:10.37,2013-07-11 18:34:00,
2013-07-11 14:39:00,79.3,74.4,28.75,SW,225,4.6,4.6,85,0.00,CLR,FEW,0.00,WeatherDisplay:10.37,2013-07-11 18:39:00,
2013-07-11 14:45:00,80.4,75.8,28.75,NNW,338,1.2,0.0,86,0.00,CLR,FEW,0.00,WeatherDisplay:10.37,2013-07-11 18:45:00,
2013-07-11 14:50:00,80.2,74.6,28.75,SSE,158,2.7,2.7,83,0.00,CLR,FEW,0.00,WeatherDisplay:10.37,2013-07-11 18:50:00,
2013-07-11 14:55:00,80.8,74.8,28.75,West,270,4.2,4.2,82,0.00,CLR,FEW,0.00,WeatherDisplay:10.37,2013-07-11 18:55:00,
2013-07-11 15:00:00,81.1,74.7,28.75,SW,225,4.6,4.6,81,0.00,CLR,FEW,0.00,WeatherDisplay:10.37,2013-07-11 19:00:00,
2013-07-11 15:05:00,81.5,75.1,28.75,SW,225,4.2,4.2,81,0.00,CLR,FEW,0.00,WeatherDisplay:10.37,2013-07-11 19:05:00,
2013-07-11 15:10:00,80.8,73.7,28.75,SSE,158,4.6,4.6,79,0.00,CLR,FEW,0.00,WeatherDisplay:10.37,2013-07-11 19:10:00,
2013-07-11 15:15:00,80.8,74.0,28.74,West,270,3.5,3.5,80,0.00,CLR,FEW,0.00,WeatherDisplay:10.37,2013-07-11 19:15:00,
2013-07-11 15:21:00,80.8,74.4,28.74,SSW,202,3.5,3.5,81,0.00,CLR,FEW,0.00,WeatherDisplay:10.37,2013-07-11 19:21:00,
2013-07-11 15:26:00,80.4,74.8,28.74,ESE,112,3.5,3.5,83,0.00,CLR,FEW,0.00,WeatherDisplay:10.37,2013-07-11 19:26:00,
2013-07-11 15:31:00,80.8,74.8,28.74,NW,315,1.2,1.2,82,0.00,CLR,FEW,0.00,WeatherDisplay:10.37,2013-07-11 19:31:00,
2013-07-11 15:36:00,81.1,74.3,28.74,SW,225,4.6,4.6,80,0.00,CLR,FEW,0.00,WeatherDisplay:10.37,2013-07-11 19:36:00,
2013-07-11 15:41:00,80.6,74.2,28.73,WNW,292,4.6,4.6,81,0.00,CLR,FEW,0.00,WeatherDisplay:10.37,2013-07-11 19:41:00,
2013-07-11 15:46:00,80.8,74.8,28.73,West,270,2.3,2.3,82,0.00,CLR,FEW,0.00,WeatherDisplay:10.37,2013-07-11 19:46:00,
2013-07-11 15:51:00,80.8,75.2,28.73,WSW,248,3.2,3.2,83,0.00,CLR,FEW,0.00,WeatherDisplay:10.37,2013-07-11 19:51:00,
2013-07-11 15:57:00,80.4,74.8,28.73,West,270,0.0,0.0,83,0.00,CLR,FEW,0.00,WeatherDisplay:10.37,2013-07-11 19:57:00,
2013-07-11 16:02:00,80.1,74.1,28.73,WSW,248,3.5,3.5,82,0.00,CLR,FEW,0.00,WeatherDisplay:10.37,2013-07-11 20:02:00,
2013-07-11 16:07:00,80.2,75.3,28.73,ESE,112,1.7,1.7,85,0.00,CLR,FEW,0.00,WeatherDisplay:10.37,2013-07-11 20:07:00,
2013-07-11 16:13:00,80.1,74.5,28.73,SSW,202,4.6,4.6,83,0.00,CLR,FEW,0.00,WeatherDisplay:10.37,2013-07-11 20:13:00,
2013-07-11 16:19:00,79.9,74.6,28.72,West,270,4.6,4.6,84,0.00,CLR,FEW,0.00,WeatherDisplay:10.37,2013-07-11 20:19:00,
2013-07-11 16:24:00,79.3,74.0,28.72,West,270,4.6,4.6,84,0.00,CLR,FEW,0.00,WeatherDisplay:10.37,2013-07-11 20:24:00,
2013-07-11 16:29:00,79.2,74.3,28.72,WSW,248,3.5,3.5,85,0.00,CLR,FEW,0.00,WeatherDisplay:10.37,2013-07-11 20:29:00,
2013-07-11 16:34:00,79.0,74.8,28.72,SW,225,4.6,4.6,87,0.00,CLR,FEW,0.00,WeatherDisplay:10.37,2013-07-11 20:34:00,
2013-07-11 16:39:00,79.2,75.0,28.72,SW,225,2.3,2.3,87,0.00,CLR,FEW,0.00,WeatherDisplay:10.37,2013-07-11 20:39:00,
2013-07-11 16:44:00,79.3,74.7,28.72,West,270,3.5,3.5,86,0.00,CLR,FEW,0.00,WeatherDisplay:10.37,2013-07-11 20:44:00,
2013-07-11 16:49:00,79.2,74.3,28.72,SSW,202,3.5,3.5,85,0.00,CLR,FEW,0.00,WeatherDisplay:10.37,2013-07-11 20:49:00,
2013-07-11 16:55:00,79.5,74.6,28.72,North,360,4.6,4.6,85,0.00,CLR,FEW,0.00,WeatherDisplay:10.37,2013-07-11 20:55:00,
2013-07-11 17:00:00,79.9,75.0,28.72,WSW,248,3.2,3.2,85,0.00,CLR,FEW,0.00,WeatherDisplay:10.37,2013-07-11 21:00:00,
2013-07-11 17:05:00,79.3,74.0,28.71,WSW,248,4.6,4.6,84,0.00,CLR,FEW,0.00,WeatherDisplay:10.37,2013-07-11 21:05:00,
2013-07-11 17:10:00,79.2,74.3,28.71,SW,225,2.7,2.7,85,0.00,CLR,FEW,0.00,WeatherDisplay:10.37,2013-07-11 21:10:00,
2013-07-11 17:15:00,79.3,74.0,28.70,SW,225,4.6,4.6,84,0.00,CLR,FEW,0.00,WeatherDisplay:10.37,2013-07-11 21:15:00,
2013-07-11 17:20:00,79.5,74.6,28.70,SSW,202,3.7,3.7,85,0.00,CLR,FEW,0.00,WeatherDisplay:10.37,2013-07-11 21:20:00,
2013-07-11 17:26:00,79.3,74.4,28.71,SW,225,1.2,0.0,85,0.00,CLR,FEW,0.00,WeatherDisplay:10.37,2013-07-11 21:26:00,
2013-07-11 17:31:00,79.3,74.4,28.71,WSW,248,2.3,2.3,85,0.00,CLR,FEW,0.00,WeatherDisplay:10.37,2013-07-11 21:31:00,
2013-07-11 17:36:00,79.9,75.7,28.71,West,270,2.3,2.3,87,0.00,CLR,FEW,0.00,WeatherDisplay:10.37,2013-07-11 21:36:00,
2013-07-11 17:42:00,80.1,74.8,28.71,SSW,202,3.7,3.7,84,0.00,CLR,FEW,0.00,WeatherDisplay:10.37,2013-07-11 21:42:00,
2013-07-11 17:47:00,79.7,74.8,28.71,South,180,3.7,3.7,85,0.00,CLR,FEW,0.00,WeatherDisplay:10.37,2013-07-11 21:47:00,
2013-07-11 17:52:00,79.7,74.8,28.71,SSW,202,2.7,2.7,85,0.00,CLR,FEW,0.00,WeatherDisplay:10.37,2013-07-11 21:52:00,
2013-07-11 17:58:00,79.9,75.0,28.71,WSW,248,3.5,3.5,85,0.00,CLR,FEW,0.00,WeatherDisplay:10.37,2013-07-11 21:58:00,
2013-07-11 18:03:00,80.2,74.9,28.70,SSW,202,3.5,3.5,84,0.00,CLR,FEW,0.00,WeatherDisplay:10.37,2013-07-11 22:03:00,
2013-07-11 18:08:00,81.5,75.5,28.70,West,270,2.3,2.3,82,0.00,CLR,FEW,0.00,WeatherDisplay:10.37,2013-07-11 22:08:00,
2013-07-11 18:13:00,81.1,75.1,28.70,South,180,3.2,3.2,82,0.00,CLR,FEW,0.00,WeatherDisplay:10.37,2013-07-11 22:13:00,
2013-07-11 18:18:00,79.9,74.3,28.70,South,180,3.7,3.7,83,0.00,CLR,FEW,0.00,WeatherDisplay:10.37,2013-07-11 22:18:00,
2013-07-11 18:23:00,80.2,74.6,28.70,SSW,202,2.3,2.3,83,0.00,CLR,FEW,0.00,WeatherDisplay:10.37,2013-07-11 22:23:00,
2013-07-11 18:29:00,80.8,74.8,28.70,SSW,202,2.3,2.3,82,0.00,CLR,FEW,0.00,WeatherDisplay:10.37,2013-07-11 22:29:00,
2013-07-11 18:34:00,80.4,74.8,28.70,SW,225,3.7,3.7,83,0.00,CLR,FEW,0.00,WeatherDisplay:10.37,2013-07-11 22:34:00,
2013-07-11 18:40:00,80.2,75.3,28.70,SW,225,2.3,2.3,85,0.00,CLR,FEW,0.00,WeatherDisplay:10.37,2013-07-11 22:40:00,
2013-07-11 18:45:00,80.6,75.3,28.70,SW,225,2.7,2.7,84,0.00,CLR,FEW,0.00,WeatherDisplay:10.37,2013-07-11 22:45:00,
2013-07-11 18:50:00,79.7,74.8,28.70,SW,225,2.3,2.3,85,0.00,CLR,FEW,0.00,WeatherDisplay:10.37,2013-07-11 22:50:00,
2013-07-11 18:55:00,79.5,74.9,28.70,SSE,158,2.3,2.3,86,0.00,CLR,FEW,0.00,WeatherDisplay:10.37,2013-07-11 22:55:00,
2013-07-11 19:00:00,80.1,75.2,28.70,WSW,248,2.7,2.7,85,0.00,CLR,FEW,0.00,WeatherDisplay:10.37,2013-07-11 23:00:00,
2013-07-11 19:05:00,80.2,75.3,28.70,SW,225,2.3,2.3,85,0.00,CLR,FEW,0.00,WeatherDisplay:10.37,2013-07-11 23:05:00,
2013-07-11 19:10:00,80.4,75.5,28.70,South,180,0.0,0.0,85,0.00,CLR,FEW,0.00,WeatherDisplay:10.37,2013-07-11 23:10:00,
2013-07-11 19:15:00,80.4,75.5,28.71,WSW,248,2.2,2.2,85,0.00,CLR,FEW,0.00,WeatherDisplay:10.37,2013-07-11 23:15:00,
2013-07-11 19:21:00,80.4,75.5,28.71,WSW,248,3.5,3.5,85,0.00,CLR,FEW,0.00,WeatherDisplay:10.37,2013-07-11 23:21:00,
2013-07-11 19:26:00,80.4,75.5,28.72,SW,225,1.1,1.1,85,0.00,CLR,FEW,0.00,WeatherDisplay:10.37,2013-07-11 23:26:00,
2013-07-11 19:31:00,80.1,75.5,28.72,SW,225,0.0,0.0,86,0.00,CLR,FEW,0.00,WeatherDisplay:10.37,2013-07-11 23:31:00,
2013-07-11 19:36:00,80.1,75.5,28.72,SSW,202,2.3,2.3,86,0.00,CLR,FEW,0.00,WeatherDisplay:10.37,2013-07-11 23:36:00,
2013-07-11 19:41:00,79.9,75.3,28.72,West,270,2.3,2.3,86,0.00,CLR,FEW,0.00,WeatherDisplay:10.37,2013-07-11 23:41:00,
2013-07-11 19:47:00,79.5,75.3,28.72,WSW,248,0.0,0.0,87,0.00,CLR,FEW,0.00,WeatherDisplay:10.37,2013-07-11 23:47:00,
2013-07-11 19:52:00,79.5,75.3,28.71,WSW,248,2.7,2.7,87,0.00,CLR,FEW,0.00,WeatherDisplay:10.37,2013-07-11 23:52:00,
2013-07-11 19:57:00,79.3,75.1,28.71,SW,225,2.3,2.3,87,0.00,CLR,FEW,0.00,WeatherDisplay:10.37,2013-07-11 23:57:00,
2013-07-11 20:03:00,79.0,75.5,28.71,NW,315,0.0,0.0,89,0.00,CLR,FEW,0.00,WeatherDisplay:10.37,2013-07-12 00:03:00,
2013-07-11 20:08:00,79.0,75.1,28.71,North,360,0.0,0.0,88,0.00,CLR,FEW,0.00,WeatherDisplay:10.37,2013-07-12 00:08:00,
2013-07-11 20:13:00,78.6,75.1,28.71,East,90,0.0,0.0,89,0.00,CLR,FEW,0.00,WeatherDisplay:10.37,2013-07-12 00:13:00,
2013-07-11 20:18:00,78.3,75.1,28.70,SSW,202,0.0,0.0,90,0.00,CLR,FEW,0.00,WeatherDisplay:10.37,2013-07-12 00:18:00,
2013-07-11 20:23:00,78.1,74.9,28.70,SSW,202,0.0,0.0,90,0.00,CLR,FEW,0.00,WeatherDisplay:10.37,2013-07-12 00:23:00,
2013-07-11 20:28:00,77.9,75.1,28.70,ESE,112,0.0,0.0,91,0.00,CLR,FEW,0.00,WeatherDisplay:10.37,2013-07-12 00:28:00,
2013-07-11 20:33:00,77.5,75.3,28.70,NNE,22,0.0,0.0,93,0.00,CLR,FEW,0.00,WeatherDisplay:10.37,2013-07-12 00:33:00,
2013-07-11 20:38:00,77.2,76.6,28.70,South,180,0.0,0.0,98,0.00,CLR,FEW,0.00,WeatherDisplay:10.37,2013-07-12 00:38:00,
2013-07-11 20:43:00,76.5,75.9,28.70,South,180,1.2,0.0,98,0.00,CLR,FEW,0.00,WeatherDisplay:10.37,2013-07-12 00:43:00,
2013-07-11 20:48:00,76.5,75.9,28.70,ESE,112,0.0,0.0,98,0.00,CLR,FEW,0.00,WeatherDisplay:10.37,2013-07-12 00:48:00,
2013-07-11 20:53:00,76.3,75.7,28.70,NW,315,0.0,0.0,98,0.00,CLR,FEW,0.00,WeatherDisplay:10.37,2013-07-12 00:53:00,
2013-07-11 20:59:00,75.9,75.3,28.70,North,360,0.0,0.0,98,0.00,CLR,FEW,0.00,WeatherDisplay:10.37,2013-07-12 00:59:00,
2013-07-11 21:04:00,75.9,75.3,28.71,East,90,0.0,0.0,98,0.00,CLR,FEW,0.00,WeatherDisplay:10.37,2013-07-12 01:04:00,
2013-07-11 21:09:00,75.7,75.1,28.71,ESE,112,0.0,0.0,98,0.00,CLR,FEW,0.00,WeatherDisplay:10.37,2013-07-12 01:09:00,
2013-07-11 21:14:00,75.6,75.0,28.71,SE,135,0.0,0.0,98,0.00,CLR,FEW,0.00,WeatherDisplay:10.37,2013-07-12 01:14:00,
2013-07-11 21:19:00,75.6,75.0,28.71,SE,135,0.0,0.0,98,0.00,CLR,FEW,0.00,WeatherDisplay:10.37,2013-07-12 01:19:00,
2013-07-11 21:24:00,75.4,74.8,28.71,NE,45,0.0,0.0,98,0.00,CLR,FEW,0.00,WeatherDisplay:10.37,2013-07-12 01:24:00,
2013-07-11 21:29:00,75.0,74.4,28.71,SSE,158,0.0,0.0,98,0.00,CLR,FEW,0.00,WeatherDisplay:10.37,2013-07-12 01:29:00,
2013-07-11 21:34:00,75.0,74.4,28.71,SSW,202,0.0,0.0,98,0.00,CLR,FEW,0.00,WeatherDisplay:10.37,2013-07-12 01:34:00,
2013-07-11 21:40:00,74.8,74.2,28.71,SSW,202,0.0,0.0,98,0.00,CLR,FEW,0.00,WeatherDisplay:10.37,2013-07-12 01:40:00,
2013-07-11 21:45:00,74.7,74.1,28.71,WNW,292,0.0,0.0,98,0.00,CLR,FEW,0.00,WeatherDisplay:10.37,2013-07-12 01:45:00,
2013-07-11 21:51:00,74.7,74.1,28.72,West,270,0.0,0.0,98,0.00,CLR,FEW,0.00,WeatherDisplay:10.37,2013-07-12 01:51:00,
2013-07-11 21:56:00,74.5,73.9,28.72,West,270,0.0,0.0,98,0.00,CLR,FEW,0.00,WeatherDisplay:10.37,2013-07-12 01:56:00,
2013-07-11 22:01:00,74.5,73.9,28.72,West,270,0.0,0.0,98,0.00,CLR,FEW,0.00,WeatherDisplay:10.37,2013-07-12 02:01:00,
2013-07-11 22:06:00,74.5,73.9,28.73,West,270,0.0,0.0,98,0.00,CLR,FEW,0.00,WeatherDisplay:10.37,2013-07-12 02:06:00,
2013-07-11 22:11:00,74.5,73.9,28.73,West,270,0.0,0.0,98,0.00,CLR,FEW,0.00,WeatherDisplay:10.37,2013-07-12 02:11:00,
2013-07-11 22:17:00,74.3,73.7,28.73,WSW,248,0.0,0.0,98,0.00,CLR,FEW,0.00,WeatherDisplay:10.37,2013-07-12 02:17:00,
2013-07-11 22:22:00,74.3,73.7,28.73,SSE,158,0.0,0.0,98,0.00,CLR,FEW,0.00,WeatherDisplay:10.37,2013-07-12 02:22:00,
2013-07-11 22:27:00,74.3,73.7,28.73,ESE,112,0.0,0.0,98,0.00,CLR,FEW,0.00,WeatherDisplay:10.37,2013-07-12 02:27:00,
2013-07-11 22:32:00,73.9,73.3,28.73,East,90,0.0,0.0,98,0.00,CLR,FEW,0.00,WeatherDisplay:10.37,2013-07-12 02:32:00,
2013-07-11 22:37:00,73.8,73.2,28.73,East,90,0.0,0.0,98,0.00,CLR,FEW,0.00,WeatherDisplay:10.37,2013-07-12 02:37:00,
2013-07-11 22:43:00,73.6,73.0,28.74,East,90,0.0,0.0,98,0.00,CLR,FEW,0.00,WeatherDisplay:10.37,2013-07-12 02:43:00,
2013-07-11 22:48:00,73.6,73.0,28.74,East,90,0.0,0.0,98,0.00,CLR,FEW,0.00,WeatherDisplay:10.37,2013-07-12 02:48:00,
2013-07-11 22:54:00,73.6,73.0,28.74,ESE,112,0.0,0.0,98,0.00,CLR,FEW,0.00,WeatherDisplay:10.37,2013-07-12 02:54:00,
2013-07-11 22:59:00,73.6,73.0,28.74,ESE,112,0.0,0.0,98,0.00,CLR,FEW,0.00,WeatherDisplay:10.37,2013-07-12 02:59:00,
2013-07-11 23:05:00,73.4,72.8,28.73,South,180,0.0,0.0,98,0.00,CLR,FEW,0.00,WeatherDisplay:10.37,2013-07-12 03:05:00,
2013-07-11 23:10:00,73.8,73.2,28.73,South,180,0.0,0.0,98,0.00,CLR,FEW,0.00,WeatherDisplay:10.37,2013-07-12 03:10:00,
2013-07-11 23:15:00,73.6,73.0,28.73,East,90,0.0,0.0,98,0.00,CLR,FEW,0.00,WeatherDisplay:10.37,2013-07-12 03:15:00,
2013-07-11 23:20:00,73.4,72.8,28.73,NNW,338,0.0,0.0,98,0.00,CLR,FEW,0.00,WeatherDisplay:10.37,2013-07-12 03:20:00,
2013-07-11 23:26:00,73.2,72.6,28.73,West,270,0.0,0.0,98,0.00,CLR,FEW,0.00,WeatherDisplay:10.37,2013-07-12 03:26:00,
2013-07-11 23:31:00,73.2,72.6,28.73,NW,315,0.0,0.0,98,0.00,CLR,FEW,0.00,WeatherDisplay:10.37,2013-07-12 03:31:00,
2013-07-11 23:37:00,73.2,72.6,28.73,NNW,338,0.0,0.0,98,0.00,CLR,FEW,0.00,WeatherDisplay:10.37,2013-07-12 03:37:00,
2013-07-11 23:42:00,73.2,72.6,28.74,ENE,68,0.0,0.0,98,0.00,CLR,FEW,0.00,WeatherDisplay:10.37,2013-07-12 03:42:00,
2013-07-11 23:47:00,73.2,72.6,28.74,North,360,0.0,0.0,98,0.00,CLR,FEW,0.00,WeatherDisplay:10.37,2013-07-12 03:47:00,
2013-07-11 23:52:00,73.2,72.6,28.74,NNE,22,2.2,2.2,98,0.00,CLR,FEW,0.00,WeatherDisplay:10.37,2013-07-12 03:52:00,
2013-07-11 23:57:00,73.4,72.8,28.74,North,360,2.3,2.3,98,0.00,CLR,FEW,0.00,WeatherDisplay:10.37,2013-07-12 03:57:00,